Lid_Strength_Index
-0 -1 -1 -1 -0 0 -0 -1 -1 -1 -1 -1 -1 -1 -1 -1 -1 -1 -1 -1 -1 -1 -1 -2 -2 -2 1 5 6 1 -1 -1 1 2 3 5 8 9 11 10 10 12 11 11 11 11 12
1 -0 -1 -1 -0 0 0 0 -0 -1 -1 -1 -1 -1 -1 -1 -1 -1 -1 -1 -1 -1 -1 -1 -1 -0 3 9 1 1 3 3 3 3 3 4 6 7 10 11 11 10 11 12 11 12 12
1 1 -0 -1 -0 0 0 0 -0 -1 -0 -1 -1 -1 -1 -1 -2 -1 -1 -1 -1 -1 -1 -1 -0 2 5 6 4 2 2 4 4 2 4 4 4 9 10 12 10 11 12 12 12 12 12
1 1 1 -0 -0 -0 0 1 -0 -0 -0 -0 -1 -1 -1 -0 -1 -1 -1 -1 -1 0 0 -0 -1 4 6 2 2 4 4 6 5 2 2 4 4 7 10 10 11 12 13 14 13 12 12
1 1 1 0 -0 -0 -0 1 1 -0 -0 -0 -0 -0 -0 -0 -0 -1 -1 -1 -1 -1 -1 -0 2 5 8 1 5 5 4 6 5 4 3 4 6 9 10 12 14 14 16 16 14 12 13
1 1 1 0 -0 -0 -0 0 1 1 -0 -0 -0 -0 -0 -0 -1 -0 -0 -2 -1 -1 0 -0 1 8 6 7 4 4 5 5 6 6 7 8 9 12 13 13 17 16 17 16 16 14 13
1 1 1 1 0 -0 0 -0 1 1 1 0 -0 -0 -0 -0 -1 -0 1 4 6 6 4 6 7 7 5 4 3 5 5 5 6 8 11 10 13 15 14 13 14 14 16 16 15 13 15
1 1 1 1 1 0 0 0 0 1 1 1 0 0 0 -0 -1 -0 3 5 5 5 8 5 5 5 4 4 7 6 4 8 8 12 11 11 15 12 10 11 12 14 16 16 15 13 16
1 1 1 1 1 1 1 0 0 1 1 1 1 1 1 0 0 3 5 5 3 4 9 7 5 5 5 5 8 7 5 7 9 12 12 13 12 10 11 12 13 15 17 16 16 14 15
2 1 1 1 1 1 1 1 1 1 1 1 1 1 1 1 4 4 6 3 3 4 12 11 8 7 6 6 9 5 5 7 9 11 11 12 10 11 12 13 13 16 13 14 14 17 19
2 2 1 1 1 1 1 2 1 1 1 1 1 1 2 1 5 7 5 4 4 7 20 10 8 5 6 8 8 8 5 7 10 11 12 13 12 12 12 13 12 14 12 14 15 17 19
2 2 2 1 1 1 1 1 2 2 1 1 2 2 2 4 6 6 5 6 6 15 21 13 8 9 9 9 9 7 8 6 7 10 10 12 10 11 12 11 12 12 13 14 17 18 22
2 2 2 2 1 1 1 1 2 2 2 1 2 2 4 5 7 5 5 8 15 19 12 14 12 10 10 11 10 10 11 12 13 16 17 14 13 11 10 14 12 14 17 21 21 23 22
1 1 2 2 2 2 1 1 1 2 2 2 2 3 5 5 5 5 7 13 19 15 15 11 11 11 13 12 12 11 13 14 13 13 16 18 19 13 11 14 16 15 17 20 22 23 22
2 1 1 2 2 2 2 1 1 1 2 3 4 7 7 8 5 6 11 17 17 15 12 12 12 15 13 12 13 13 14 14 14 14 16 16 17 12 12 12 14 16 18 16 20 22 22
1 1 1 2 2 2 2 2 2 2 2 3 7 9 8 6 6 9 13 14 14 11 11 11 15 14 17 14 14 15 15 14 13 13 14 15 17 14 12 12 13 16 15 19 20 22 23
1 1 1 2 2 2 2 2 2 2 2 3 8 10 8 7 8 11 17 16 13 11 11 12 13 15 15 16 15 15 15 13 12 13 14 16 16 17 14 16 16 16 17 17 18 20 21
1 1 1 2 2 2 2 2 2 2 3 5 9 12 7 9 14 15 15 14 10 12 12 12 13 13 14 15 16 16 15 14 12 12 16 16 16 20 18 15 14 15 17 17 19 21 21
1 1 2 2 2 2 2 2 2 2 3 9 10 10 7 10 16 17 14 13 13 13 14 13 14 14 15 15 16 14 14 12 12 13 15 15 18 22 19 18 16 16 16 17 18 18 21
2 2 2 2 2 1 1 2 2 3 3 9 12 14 11 11 13 15 16 16 16 12 13 14 15 15 16 17 16 16 16 13 12 13 10 13 18 19 20 19 17 19 17 17 18 21 21
2 2 2 2 2 2 1 2 3 3 3 9 12 14 13 16 13 14 15 15 15 16 15 14 16 16 17 19 19 18 16 16 14 12 15 16 20 21 19 18 18 18 18 17 19 19 19
2 2 2 2 2 2 2 2 2 3 4 10 13 13 13 14 13 14 13 15 14 14 14 15 16 15 16 18 17 18 17 17 17 16 17 16 20 18 19 16 18 18 17 17 17 17 18
3 3 3 3 3 2 2 2 2 2 6 11 11 11 12 13 15 15 15 14 13 13 13 13 13 14 15 14 14 14 14 15 16 16 16 17 18 18 19 17 16 18 16 17 18 17 16
3 4 3 3 3 3 3 2 2 2 5 9 11 11 13 15 14 14 13 13 13 13 13 13 13 14 13 12 12 13 14 14 15 16 15 17 18 18 20 18 23 16 15 15 16 16 16
2 3 4 4 3 4 3 3 3 2 3 8 10 10 12 15 14 14 13 13 14 14 14 13 12 12 12 13 15 16 16 16 16 16 17 16 17 19 20 21 18 16 16 16 16 16 16
2 3 3 4 4 5 4 3 3 4 3 7 9 9 11 14 15 12 13 13 14 16 14 13 13 12 12 14 15 18 19 17 18 19 16 16 17 18 19 21 21 18 16 16 15 18 16
4 5 5 6 6 5 5 5 5 5 4 7 9 9 10 13 12 12 13 13 13 14 15 15 15 14 13 16 17 18 18 16 18 19 19 19 19 20 20 21 19 16 16 15 19 18 15
4 5 6 6 6 6 5 5 5 5 5 7 9 9 10 13 12 11 11 12 13 14 15 14 14 15 16 17 17 18 19 17 19 18 19 19 20 21 21 22 22 15 15 17 16 16 15
5 5 6 6 6 6 6 6 6 6 5 6 10 8 9 11 12 10 10 11 11 11 12 14 14 15 14 17 17 18 17 18 18 19 18 18 17 18 18 18 15 15 16 14 14 14 13